Location: Unspecified
(49.2170°N, 0.0000°E)
Time: 18:39:24
(UTC+00:00)

A-11 Canister half - Pass Details

Date: 27 January 2021
Orbit: 1516 x 1684 km, 47.2° (Epoch: 05 March)

Event Time Altitude Azimuth Distance (km) Brightness Sun altitude
Rises 19:49:53 0° 232° (SW) 4,765 12.2 -29.5°
Reaches altitude 10° 19:53:04 10° 228° (SW) 3,760 11.5 -30.0°
Maximum altitude 20:02:14 57° 153° (SSE) 1,766 9.0 -31.5°
Enters shadow 20:02:35 57° 145° (SE) 1,770 9.0 -31.5°
